星链-6328 (STARLINK-6328 )

导读

STARLINK-6328是美国SpaceX星链互联网卫星家族的一员,于2023年5月14日发射升空,属于星链项目低轨卫星星座组网卫星。它运行在近地轨道,承担着为全球偏远地区、移动载体等提供高速宽带互联网接入服务的任务,进一步扩展了星链星座的覆盖范围与服务能力。

Basic Information
目录编号:
56523
目录名称:
STARLINK-6328
国际标识:
2023-065W
轨道中心:
EARTH
卫星名称:
星链-6328
卫星全名:
星链-6328 (STARLINK-6328 )
卫星状态:
在轨 (已飞行1209 天)
发射日期:
2023-05-14 UTC
国别 :
美国 (US)
星等 :
--
Orbit Information
数据来源 国际轨道数据
星历时间: 2026-09-03T12:56:44+0800
23小时前
查看轨道信息
半长轴: 6861.184km
偏心率: 0.0001387
轨道倾角: 43.002°
近地点辐角 264.476°
升交点赤经 290.379°
平近点角 95.593°
近地点: 482.095km
远地点: 483.999km
周期: 94.267分钟
每日圈数: 15.275809
Detailed Information
固有亮度:
5
最大亮度:
2.5
卫星平台:
Starlink v1.5
覆盖范围:
全球
运营商:
太空探索技术公司
运营商所在国:
美国
制造商(研发单位):
太空探索技术公司
制造商所在国:
美国
使用方式:
暂无
Satellite Introduction
星链(Starlink)计划是由太空探索技术公司(SpaceX)提出的一个巨型低轨卫星互联网星座项目,计划在2019年至2024年间在太空搭建由约1.2万颗卫星组成的“星链”网络,其中1584颗将部署在地球上空550千米处的近地轨道,并从2020年开始工作。该卫星仍在工作。
2D Orbit Map
3D Orbit Map
Orbit Altitude Analysis Chart
Orbit Inclination Analysis Chart
Orbit Comprehensive Analysis Chart
View Comprehensive Chart
Conjunction Data List
Event ID Objects TCA Miss Dist (km) Collision Risk Probability Collision Risk Index (CRI) Action
CDM_260905-100205-652306-249121
2026-09-05T
10:02:16+0000
0.479 km
远距离
1.383446E-4 高风险 0.78
CDM_260904-055005-652306-719022
2026-09-04T
05:50:10+0000
0.527 km
远距离
1.233424E-4 高风险 0.77
CDM_260904-191005-652306-719022
2026-09-04T
19:10:28+0000
1.162 km
极远距离
1.031955E-5 中风险 0.55
CDM_260904-204405-652306-719021
2026-09-04T
20:44:38+0000
1.205 km
极远距离
9.084808E-6 低风险 0.54
CDM_260904-072405-652306-719021
2026-09-04T
07:24:20+0000
1.331 km
极远距离
6.476242E-6 低风险 0.51
CDM_260905-082805-652306-249121
2026-09-05T
08:28:06+0000
1.545 km
极远距离
3.481729E-6 低风险 0.46
CDM_260904-041605-652306-719022
2026-09-04T
04:16:01+0000
2.320 km
极远距离
1.387161E-6 低风险 0.38
CDM_260905-041705-652306-762621
2026-09-05T
04:17:28+0000
2.197 km
极远距离
1.350137E-6 低风险 0.38
CDM_260905-055105-652306-762621
2026-09-05T
05:51:37+0000
2.487 km
极远距离
1.067521E-6 低风险 0.36
CDM_260905-113605-652306-249121
2026-09-05T
11:36:25+0000
2.530 km
极远距离
1.054711E-6 低风险 0.35